Location: Little Ridge
(33.0629°N, 96.4547°W)
Time: 08:13:56
(UTC+00:00)

X-37B - Visible Passes

Search period start: 04 December 2022 00:00
Search period end: 14 December 2022 00:00
Orbit: 277 x 277 km, 45.0° (Epoch: 01 November)

Date Brightness Start Highest point End Pass type
(mag) Time Alt. Az. Time Alt. Az. Time Alt. Az.
04 Dec 2.6 00:58:35 10° SSW 00:59:20 17° SSW 00:59:20 17° SSW visible
05 Dec 2.2 00:59:04 10° WSW 01:00:20 26° WSW 01:00:20 26° WSW visible
06 Dec 2.3 00:59:55 10° W 01:01:14 24° WNW 01:01:14 24° WNW visible
07 Dec 2.7 01:01:06 10° WNW 01:02:05 16° NW 01:02:05 16° NW visible
08 Dec 3.2 01:02:39 10° NW 01:02:51 11° NW 01:02:51 11° NW visible
